TimeAKST,TemperatureF,Dew PointF,Humidity,Sea Level PressureIn,VisibilityMPH,Wind Direction,Wind SpeedMPH,Gust SpeedMPH,PrecipitationIn,Events,Conditions,WindDirDegrees,DateUTC
12:53 AM,39.0,30.9,73,29.74,10.0,SSW,29.9,38.0,N/A,,Scattered Clouds,210,2013-03-01 09:53:00
1:53 AM,39.0,30.0,70,29.77,10.0,SSW,25.3,33.4,N/A,,Overcast,200,2013-03-01 10:53:00
3:53 AM,37.0,32.0,82,29.82,10.0,SSW,17.3,27.6,N/A,,Mostly Cloudy,200,2013-03-01 12:53:00
4:33 AM,35.6,32.0,87,29.83,9.0,SSW,10.4,-,0.01,Rain,Light Rain,200,2013-03-01 13:33:00
4:53 AM,35.1,32.0,89,29.83,8.0,SSW,9.2,-,0.02,Rain,Light Rain,210,2013-03-01 13:53:00
5:53 AM,34.0,30.9,89,29.84,10.0,NNE,4.6,-,0.02,Rain,Light Rain,30,2013-03-01 14:53:00
7:02 AM,33.8,32.0,93,29.84,10.0,Calm,Calm,-,0.00,,Overcast,0,2013-03-01 16:02:00
7:13 AM,33.8,32.0,93,29.84,10.0,Calm,Calm,-,0.00,,Overcast,0,2013-03-01 16:13:00
7:53 AM,35.1,33.1,92,29.85,10.0,NE,6.9,-,0.00,Rain,Light Rain,40,2013-03-01 16:53:00
8:25 AM,33.8,33.8,100,29.85,8.0,North,3.5,-,0.01,,Overcast,360,2013-03-01 17:25:00
8:53 AM,33.1,30.9,92,29.86,1.8,ENE,3.5,-,0.04,Snow,Light Snow,60,2013-03-01 17:53:00
9:04 AM,33.8,30.2,87,29.86,2.5,Calm,Calm,-,0.01,Snow,Light Snow,0,2013-03-01 18:04:00
9:20 AM,33.8,30.2,87,29.86,2.0,Calm,Calm,-,0.02,Snow,Light Snow,0,2013-03-01 18:20:00
9:36 AM,33.8,30.2,87,29.86,4.0,Calm,Calm,-,0.02,Snow,Light Snow,0,2013-03-01 18:36:00
9:41 AM,33.8,30.2,87,29.86,2.5,Calm,Calm,-,0.02,Snow,Light Snow,0,2013-03-01 18:41:00
9:48 AM,33.8,30.2,87,29.86,2.0,Calm,Calm,-,0.03,Snow,Light Snow,0,2013-03-01 18:48:00
9:53 AM,33.1,30.9,92,29.87,1.5,Calm,Calm,-,0.03,Snow,Light Snow,0,2013-03-01 18:53:00
10:01 AM,33.8,30.2,87,29.87,1.0,Calm,Calm,-,0.01,Snow,Light Snow,0,2013-03-01 19:01:00
10:24 AM,32.0,30.2,93,29.88,0.8,Calm,Calm,-,0.03,Snow,Light Snow,0,2013-03-01 19:24:00
10:53 AM,32.0,30.9,96,29.89,0.8,Calm,Calm,-,0.07,Snow,Light Snow,0,2013-03-01 19:53:00
11:00 AM,32.0,30.2,93,29.89,0.8,Calm,Calm,-,0.01,Snow,Light Snow,0,2013-03-01 20:00:00
11:07 AM,33.8,30.2,87,29.88,1.0,Variable,3.5,-,0.02,Snow,Light Snow,0,2013-03-01 20:07:00
11:21 AM,33.8,30.2,87,29.89,2.0,SW,11.5,-,0.03,Snow,Light Snow,220,2013-03-01 20:21:00
11:29 AM,33.8,32.0,93,29.88,7.0,Calm,Calm,-,0.03,Snow,Light Snow,0,2013-03-01 20:29:00
11:53 AM,34.0,33.1,96,29.90,8.0,East,4.6,-,0.03,Snow,Light Snow,80,2013-03-01 20:53:00
12:04 PM,33.8,33.8,100,29.90,10.0,Variable,3.5,-,0.00,,Overcast,0,2013-03-01 21:04:00
12:22 PM,35.6,33.8,93,29.91,10.0,Calm,Calm,-,0.00,,Overcast,0,2013-03-01 21:22:00
12:53 PM,37.9,34.0,86,29.90,10.0,SSW,18.4,27.6,0.01,,Overcast,200,2013-03-01 21:53:00
1:53 PM,39.0,34.0,82,29.90,10.0,SSW,21.9,-,N/A,,Overcast,200,2013-03-01 22:53:00
2:53 PM,39.0,34.0,82,29.91,10.0,SSW,18.4,27.6,N/A,,Overcast,200,2013-03-01 23:53:00
3:53 PM,39.0,34.0,82,29.92,10.0,SSW,17.3,25.3,N/A,,Overcast,200,2013-03-02 00:53:00
4:53 PM,39.0,34.0,82,29.92,10.0,SSW,17.3,24.2,N/A,,Overcast,200,2013-03-02 01:53:00
5:53 PM,37.9,33.1,83,29.94,10.0,South,4.6,16.1,N/A,,Partly Cloudy,190,2013-03-02 02:53:00
6:53 PM,39.0,33.1,79,29.96,10.0,South,9.2,18.4,N/A,,Scattered Clouds,190,2013-03-02 03:53:00
7:02 PM,39.2,33.8,81,29.94,10.0,South,13.8,18.4,N/A,,Mostly Cloudy,190,2013-03-02 04:02:00
7:21 PM,37.4,33.8,87,29.95,10.0,SSW,15.0,24.2,N/A,,Scattered Clouds,200,2013-03-02 04:21:00
7:53 PM,37.9,33.1,83,29.96,10.0,SSW,15.0,-,N/A,,Partly Cloudy,200,2013-03-02 04:53:00
8:53 PM,39.0,33.1,79,29.97,10.0,SSW,10.4,16.1,N/A,,Mostly Cloudy,200,2013-03-02 05:53:00
9:53 PM,37.0,32.0,82,29.98,10.0,NE,4.6,-,N/A,,Overcast,50,2013-03-02 06:53:00
10:53 PM,37.0,34.0,89,29.98,10.0,Calm,Calm,-,N/A,,Overcast,0,2013-03-02 07:53:00
11:53 PM,36.0,32.0,86,30.00,10.0,NE,4.6,-,N/A,,Overcast,50,2013-03-02 08:53:00